Weather in Burmistrovo

Russia / Novosibirsk Oblast     54°38′10″N   82°50′10″E
temp.,
°C
wind,
m/s
gust,
m/s
humid.,
%
clouds,
%
prec.,
mm/h
press.,
hPa
HPBL,
m
25 february, thu
thu2501:00−17wsw7167583 3.4 1013397
04:00−22sw45920 0.0 101554
07:00−23sw510890 0.0 1017145
10:00−24ssw510890 0.0 1018179
13:00−19sw7118125 0.0 10191222
16:00−19sw101583100 0.1 10201629
19:00−19sw61292100 0.1 1021673
22:00−20sw51293100 0.1 1021574
26 february, fri
fri2601:00−21sw71290100 0.1 1022721
04:00−21sw71291100 0.1 1023748
07:00−22sw81390100 0.1 1026828
10:00−24sw91490100 0.1 1028667
13:00−23wsw91389100 0.1 1031950
16:00−22wsw81289100 0.1 1032991
19:00−23wsw61191100 0.2 1034703
22:00−24wsw51194100 0.1 1036606
27 february, sat
sat2701:00−25wsw51094100 0.1 1036425
04:00−26sw4895100 0.0 1036284
07:00−25sw5893100 0.1 1037465
10:00−25sw5892100 0.1 1038448
13:00−24sw4791100 0.1 1038494
16:00−23wsw4689100 0.0 1038516
19:00−25sw239695 0.0 103820
22:00−27sw349668 0.0 103923
28 february, sun
sun2801:00−29sw339435 0.0 103919
04:00−29ssw23930 0.0 103919
07:00−29sse23920 0.0 104019
10:00−27se34930 0.0 103949
13:00−21se468712 0.0 1037275
16:00−18se478872 0.0 1035310
19:00−16se469287 0.0 1032103
22:00−12se61293100 0.1 1029357
1 march, mon
mon101:00−11sse71392100 0.5 1025521
04:00−9sse81493100 0.6 1021551
07:00−7s71394100 1.8 1018598
10:00−6s91594100 1.3 1015681
13:00−3ssw111794100 3.3 1013846
16:000sw111691100 0.3 10121020
19:000wsw81398100 1.1 1012498
22:000wsw81493100 0.4 1013504